Weather Service Report


076 
ASUS44 KLUB 290910
RWRTX 
WEST TEXAS WEATHER ROUNDUP
NATIONAL WEATHER SERVICE LUBBOCK TX
400 AM CDT SUN MAR 29 2015

NOTE: "FAIR" INDICATES FEW OR NO CLOUDS BELOW 12,000 FEET WITH NO
SIGNIFICANT WEATHER AND/OR OBSTRUCTIONS TO VISIBILITY.

TXZ004-006>008-010-012-014-016-OKZ002-291000-
TEXAS PANHANDLE/OKLAHOMA PANHANDLE
  
CITY           SKY/WX    TMP DP  RH WIND       PRES   REMARKS
AMARILLO       CLEAR     52  39  61 S15       29.98F                  
BORGER         CLEAR     61  41  47 S16G24    29.92F                  
CANADIAN       CLEAR     58  48  69 SW9       29.90F                  
DALHART        CLEAR     46  27  47 S9        29.97F                  
DUMAS          CLEAR     54  34  45 SW18      29.96S                  
GUYMON         CLEAR     51  36  56 W5        29.91R                  
HEREFORD       CLEAR     49  36  61 W8        30.00F                  
PAMPA          CLEAR     54  43  67 S15       29.94F                  
PERRYTON       CLEAR     53  43  70 S9        29.90F                  
$$

TXZ026-029-035-045-048-291000-
SOUTHERN PANHANDLE/SOUTH PLAINS/ROLLING PLAINS
  
CITY           SKY/WX    TMP DP  RH WIND       PRES   REMARKS
CHILDRESS      CLEAR     51  44  77 CALM      29.92F                  
SEMINOLE       CLEAR     51  37  56 SW6       30.01F                  
LUBBOCK        CLEAR     53  39  59 S8        29.97F                  
PLAINVIEW      CLEAR     55  43  64 S7        29.96F                  
SNYDER         CLEAR     59  38  44 S9        29.99F                  
$$

TXZ052-054-060>062-072-078-127-140-154-169-291000-
PERMIAN BASIN/CONCHO VALLEY/BIG COUNTRY/EDWARDS PLATEAU  
  
CITY           SKY/WX    TMP DP  RH WIND       PRES   REMARKS
ABILENE        CLEAR     66  39  37 S15       29.96F                  
BIG SPRING     CLEAR     59  38  45 SE10      30.02S                  
BRADY          CLEAR     64  45  48 S9        30.01S                  
BROWNWOOD      CLEAR     54  41  62 SE6       30.00F                  
JUNCTION       CLEAR     61  41  47 W5        30.04F                  
MIDLAND        CLEAR     59  39  47 SW9       29.99F                  
ODESSA         CLEAR     63  36  36 S13       30.00F                  
SAN ANGELO     CLEAR     62  39  42 S6        29.98F                  
SONORA         CLEAR     61  39  44 S6        30.07S                  
SWEETWATER     CLEAR     63  38  40 S15       30.00F                  
WINK           CLEAR     52  40  63 E7        29.97F                  
$$

TXZ055-058-074-075-080-082-291000-
FAR WEST/SOUTHWEST MOUNTAINS/TRANS PECOS
  
CITY           SKY/WX    TMP DP  RH WIND       PRES   REMARKS
ALPINE         CLEAR     58  20  22 W12       30.16F                  
DRYDEN           N/A     58  43  57 N8        30.00F                  
EL PASO        CLEAR     77   0   5 W20       30.08R                  
FORT STOCKTON  CLEAR     64  28  25 SW13      30.01F                  
GUADALUPE PASS CLEAR     63   9  12 SW9       30.17F                  
MARFA          CLEAR     41  27  56 N5        30.17F                  
PECOS          CLEAR     53  33  47 CALM      29.99S                  
PRESIDIO       FAIR      60  31  33 N8        30.05S                  
$$

TXZ014-016-019-021>030-083-291000
TEXAS TECH WEST TEXAS MESONET/TEXAS PANHANDLE/NORTHERN SOUTH PLAINS
  
CITY           SKY/WX    TMP DP  RH WIND       PRES   REMARKS
ABERNATHY 5ENE   N/A     48  40  73 S9        29.98F                  
AMARILLO 9NNE    N/A     59  40  49 S15       29.95F                  
AMARILLO 7SSE    N/A     49  37  64 SW8       29.99F                  
AMHERST 1NE      N/A     53  31  43 SW10      29.99F                  
BOOTLEG 11WNW    N/A     53  29  38 SW10      30.04R                  
CANADIAN 6E      N/A     58  46  63 S10       29.89F                  
CAPROCK CYN SP   N/A     63  42  45 SW12      29.94F                  
CHILDRESS 2NNE   N/A     55  47  73 S3        29.91F                  
CLARENDON 2WSW   N/A     50  41  69 S1        29.94F                  
CLAUDE 12SW      N/A     57  40  53 S9        29.97F                  
DIMMITT 2NE      N/A     53  35  50 S15       30.00S                  
FLOYDADA 2NNE    N/A     56  41  58 S10       29.96F                  
FRIONA 2NE       N/A     53  31  42 S13       30.00F                  
GOODLETT 3W      N/A     51  46  81 SW7       29.90F                  
HART 3N          N/A     46  36  70 W8        30.00S                  
HEREFORD 2NW     N/A     51  32  49 SW8       30.00S                  
MCLEAN 1E        N/A     54  45  72 S9        29.92F                  
MEMPHIS 1NE      N/A     47  39  73 NW3       29.92F                  
MULESHOE 2SSW    N/A     56  29  35 S12       30.00F                  
OLTON 6S         N/A     46  37  71 SW9       29.98F                  
PALO DURO SP     N/A     54  38  54 S10       29.99F                  
PAMPA 2E         N/A     55  45  68 S13       29.93F                  
PLAINVIEW 1S     N/A     54  42  63 S7        29.96F                  
SILVERTON 7ESE   N/A     49  41  74 SW7       29.96F                  
TULIA 2ENE       N/A     50  40  68 SW8       29.98S                  
TURKEY 2WSW      N/A     53  42  66 SW10      29.92F                  
UMBARGER 3NNE    N/A     49  36  62 SW10      29.98F                  
$$

TXZ033>036-039>041-045>048-291000
TEXAS TECH WEST TEXAS MESONET/SOUTH PLAINS  
  
CITY           SKY/WX    TMP DP  RH WIND       PRES   REMARKS
AIKEN 3WSW       N/A     46  39  76 S6        29.98F                  
ANDREWS 2NE      N/A     59  36  41 S12       30.00F                  
ANTON 6SSW       N/A     48  32  53 SW5       29.98F                  
BROWNFIELD 2S    N/A     49  31  49 SW10      30.00S                  
DENVR CTY 7WNW   N/A     51  29  42 SW9       30.01F                  
GAIL 2ESE        N/A     55  40  55 S6        29.98S                  
LAMESA 2SE       N/A     46  37  71 SE2       30.01R                  
LEVELLAND 4S     N/A     46  29  52 SW8       29.99F                  
LUBBOCK 3WNW     N/A     57  35  43 S9        29.98S                  
MORTON 1ENE      N/A     56  27  32 SW8       30.00F                  
ODONNELL 1N      N/A     50  35  56 SW9       30.00S                  
PLAINS 3N        N/A     47  28  46 SW5       30.02S                  
REESE CENTER     N/A     46  34  61 SW8       29.98F                  
SEAGRAVES 1SW    N/A     48  32  54 SW8       30.00F                  
SEMINOLE 2NNE    N/A     53  36  51 SW3       30.00F                  
SLATON 2NE       N/A     58  35  41 SW17      29.97F                  
SNYDER 3E        N/A     59  38  45 S10       29.98F                  
SUNDOWN 8SW      N/A     47  29  49 SW8       30.00F                  
TAHOKA 3NNE      N/A     56  36  47 SW10      29.98F                  
WOLFFORTH 6SSW   N/A     50  30  47 S9        29.99F                  
$$

TXZ031-032-036>038-042>044-291000-
TEXAS TECH WEST TEXAS MESONET/ROLLING PLAINS 
  
CITY           SKY/WX    TMP DP  RH WIND       PRES   REMARKS
ASPERMONT 3NE    N/A     60  39  46 S6        29.94S                  
FLUVANNA 3WNW    N/A     58  37  44 S12       29.98S                  
GRAHAM 5SSW      N/A     58  37  45 SW7       29.98F                  
GUTHRIE 10WSW    N/A     59  43  56 SW8       29.93F                  
HASKELL 1NW      N/A     55  40  55 S9        29.94S                  
JAYTON 1SSE      N/A     59  39  47 SW7       29.95F                  
KNOX CITY 3NW    N/A     50  45  81 S9        29.93F                  
LK A HENRY 1NW   N/A     64  38  38 SW13      29.96S                  
NORTHFIELD 1S    N/A     53  45  74 N1        29.92F                  
ODELL 4ENE       N/A     54  48  80 E8        29.91S                  
PADUCAH 10SW     N/A     60  46  58 SW15      29.91F                  
POST 1NE         N/A     61  38  43 S5        29.96F                  
RRING SPRGS 3N   N/A     58  44  59 SW7       29.94F                  
SEYMOUR 3NW      N/A     53  43  68 S6        29.91F                  
SPUR 1W          N/A     48  42  79 SW3       29.95S                  
WEINERT 2NNE     N/A     53  42  67 S6        29.93F                  
WHITE RVR 6NE    N/A     58  40  51 S7        29.96F                  
$$

TXZ052-054-060>062-072-078-127-140-154-169-291000-
TEXAS TECH WEST TEXAS MESONET/PERMIAN BASIN/
CONCHO VALLEY/BIG COUNTRY/EDWARDS PLATEAU
  
CITY           SKY/WX    TMP DP  RH WIND       PRES   REMARKS
COYANOSA 2N      N/A     49  37  64 S1        29.99F                  
JUNCTION 1SSW    N/A     55  41  60 S2        30.04F                  
MERTZON 3NNE     N/A     63  41  45 S14       30.00S                  
SAN ANGELO 7NW   N/A     64  38  38 SW5       29.99S                  
STRLNG CT 4WSW   N/A     62  41  45 S8        30.00F                  
ST LAWRNCE 5SW   N/A     61  40  45 S12       30.00F                  
SWEETWATR 11SW   N/A     61  40  45 S10       29.99F                  
WALL 1E          N/A     65  38  36 S20       29.97F                  
$$

TXZ055-058-074-075-080-082-291000-
TEXAS TECH WEST TEXAS MESONET/FAR WEST/SOUTHWEST MOUNTAINS/TRANS PECOS
  
CITY           SKY/WX    TMP DP  RH WIND       PRES   REMARKS
PRSMN GAP BBNP   N/A     57  35  44 SW2       30.05S                  
$$

Return to Home page


Western Regional Climate Center, wrcc@dri.edu